Вернуться в каталог

CZ-6A DEB

АктивенPO
NORAD 60984·DEBRIS·🇨🇳 China

Запущен Aug 6, 2024 с Taiyuan Satellite Launch Center

Loading…

Ближайшие Пролёты (ближайшие 24 часа)

TLE

СвежийSource: Space-Track

Эпоха: Sep 13, 2026, 17:17 UTC

1 60984U 24140MK  26256.72028317  .00000403  00000-0  11447-3 0  9996
2 60984  88.9287 255.1056 0061645 322.9357  36.7595 14.42541103108445

Отслеживайте CZ-6A DEB в реальном времени с AllMySat

Download on the App Store